Location: Unspecified
(0.0000°N, 0.0000°E)
Time: 12:02:44
(UTC+00:00)

Vanguard 1 Rocket - All Passes

Search period start: 31 May 2016 00:00
Search period end: 10 June 2016 00:00
Orbit: 651 x 4225 km, 34.3° (Epoch: 29 May)

Date Brightness Start Highest point End Pass type
(mag) Time Alt. Az. Time Alt. Az. Time Alt. Az.
31 May - 01:33:14 10° NW 01:38:28 56° NE 01:47:39 10° ESE visible
31 May - 03:58:14 10° W 04:05:35 35° SSW 04:18:45 10° SE visible
31 May - 06:29:16 10° SW 06:39:04 19° S 06:52:48 10° SSE daylight
31 May - 09:02:28 10° SSW 09:19:29 24° SSE 09:38:11 10° ESE daylight
31 May - 11:33:27 10° SW 11:58:21 48° SSE 12:16:58 10° E daylight
31 May - 14:06:34 10° SW 14:31:27 80° NW 14:45:10 10° NE daylight
31 May - 16:47:01 10° W 16:59:44 24° NW 17:07:48 10° N daylight
01 Jun - 00:24:02 10° N 00:27:50 22° NE 00:32:58 10° E night (unlit)
01 Jun - 02:46:54 10° WNW 02:53:03 52° SSW 03:04:34 10° SE visible
01 Jun - 05:15:28 10° WSW 05:23:33 21° SSW 05:35:49 10° SSE visible
01 Jun - 07:48:34 10° SSW 08:01:17 19° S 08:17:13 10° SE daylight
01 Jun - 10:19:21 10° SSW 10:41:35 36° SSE 11:01:46 10° E daylight
01 Jun - 12:50:40 10° SW 13:17:07 76° SE 13:33:38 10° ENE daylight
01 Jun - 15:27:21 10° WSW 15:47:16 43° NW 15:58:29 10° NNE daylight
02 Jun - 01:36:21 10° NW 01:41:33 86° NE 01:50:48 10° SE visible
02 Jun - 04:02:38 10° WSW 04:09:30 26° SSW 04:20:45 10° SSE visible
02 Jun - 06:34:41 10° SW 06:43:55 17° S 06:56:17 10° SE daylight
02 Jun - 09:05:50 10° SSW 09:24:04 27° SSE 09:43:53 10° ESE daylight
02 Jun - 11:35:52 10° SW 12:01:38 57° SE 12:20:51 10° ENE daylight
02 Jun - 14:09:29 10° WSW 14:34:06 67° NW 14:48:07 10° NE daylight
02 Jun - 16:52:32 10° WNW 17:02:51 18° NW 17:10:01 10° N daylight
03 Jun - 00:26:32 10° NNW 00:30:50 35° NE 00:37:02 10° ESE night (unlit)
03 Jun - 02:50:47 10° W 02:56:39 36° SSW 03:06:52 10° SE visible
03 Jun - 05:20:52 10° SW 05:28:01 17° S 05:38:00 10° SSE visible
03 Jun - 07:52:44 10° SSW 08:06:15 20° SSE 08:22:59 10° ESE daylight
03 Jun - 10:21:58 10° SW 10:45:15 42° SSE 11:06:18 10° E daylight
03 Jun - 12:53:13 10° SW 13:19:55 89° SE 13:36:50 10° NE daylight
03 Jun - 15:31:29 10° W 15:50:01 35° NW 16:01:06 10° NNE daylight
03 Jun - 23:18:14 10° NNE 23:20:07 12° NE 23:22:09 10° ENE night (unlit)
04 Jun - 01:39:45 10° WNW 01:44:50 61° SSW 01:53:38 10° SE visible
04 Jun - 04:07:33 10° WSW 04:13:37 19° SSW 04:22:34 10° SSE visible
04 Jun - 06:39:47 10° SSW 06:48:53 16° S 07:00:41 10° SE daylight
04 Jun - 09:08:50 10° SSW 09:28:15 31° SSE 09:49:15 10° E daylight
04 Jun - 11:38:18 10° SW 12:04:39 68° SE 12:24:25 10° ENE daylight
04 Jun - 14:12:45 10° WSW 14:36:43 55° NW 14:50:57 10° NE daylight
04 Jun - 16:59:00 10° WNW 17:06:15 14° NW 17:11:51 10° N daylight
05 Jun - 00:29:25 10° NW 00:33:54 60° NE 00:40:36 10° ESE night (unlit)
05 Jun - 02:55:04 10° WSW 03:00:27 25° SSW 03:08:56 10° SSE visible
05 Jun - 05:26:39 10° SSW 05:32:41 14° S 05:40:28 10° SSE visible
05 Jun - 07:56:18 10° SSW 08:10:56 23° SSE 08:29:00 10° ESE daylight
05 Jun - 10:24:29 10° SW 10:48:34 50° SE 11:10:25 10° ENE daylight
05 Jun - 12:55:58 10° WSW 13:22:34 78° NW 13:39:51 10° NE daylight
05 Jun - 15:36:13 10° W 15:52:57 28° NW 16:03:37 10° NNE daylight
05 Jun - 23:19:52 10° NNW 23:23:17 21° NE 23:27:13 10° E night (unlit)
06 Jun - 01:43:28 10° W 01:48:19 38° SSW 01:56:09 10° SE visible
06 Jun - 04:13:10 10° SW 04:17:55 14° S 04:24:08 10° SSE visible
06 Jun - 06:44:15 10° SSW 06:53:48 16° SSE 07:06:07 10° SE daylight
06 Jun - 09:11:35 10° SSW 09:32:00 37° SSE 09:54:10 10° E daylight
06 Jun - 11:40:50 10° SW 12:07:26 79° SE 12:27:43 10° ENE daylight
06 Jun - 14:16:25 10° WSW 14:39:23 45° NW 14:53:39 10° NNE daylight
06 Jun - 17:07:08 10° NW 17:10:00 11° NNW 17:12:36 10° NNW daylight
07 Jun - 00:32:35 10° WNW 00:37:05 80° SW 00:43:44 10° SE night (unlit)
07 Jun - 02:59:58 10° SW 03:04:25 17° SSW 03:10:37 10° SSE visible
07 Jun - 05:32:28 10° SSW 05:37:29 12° S 05:43:32 10° SSE visible
07 Jun - 07:59:25 10° SSW 08:15:13 26° SSE 08:34:53 10° ESE daylight
07 Jun - 10:26:59 10° SW 10:51:35 60° SE 11:14:10 10° ENE daylight
07 Jun - 12:59:00 10° WSW 13:25:09 66° NW 13:42:43 10° NE daylight
07 Jun - 15:41:37 10° W 15:56:11 22° NW 16:06:04 10° N daylight
07 Jun - 23:22:22 10° NNW 23:26:26 37° NE 23:31:15 10° ESE night (unlit)
08 Jun - 01:47:37 10° W 01:51:58 24° SSW 01:58:22 10° SSE visible
08 Jun - 04:20:18 10° SSW 04:22:23 11° S 04:24:41 10° S visible
08 Jun - 06:47:59 10° SSW 06:58:31 18° SSE 07:12:16 10° ESE daylight
08 Jun - 09:14:12 10° SSW 09:35:22 44° SE 09:58:38 10° E daylight
08 Jun - 11:43:31 10° SW 12:10:04 89° NW 12:30:47 10° NE daylight
08 Jun - 14:20:35 10° W 14:42:13 37° NW 14:56:16 10° NNE daylight
08 Jun - 22:13:06 10° N 22:15:32 14° NNE 22:17:55 10° ENE night (unlit)
09 Jun - 00:36:07 10° WNW 00:40:26 45° SSW 00:46:33 10° SE night (unlit)
09 Jun - 03:06:09 10° SSW 03:08:34 11° S 03:11:21 10° S visible
09 Jun - 05:37:34 10° S 05:42:18 12° SSE 05:47:54 10° SSE visible
09 Jun - 08:02:16 10° SSW 08:19:06 31° SSE 08:40:20 10° E daylight
09 Jun - 10:29:34 10° SW 10:54:21 70° SE 11:17:35 10° ENE daylight
09 Jun - 13:02:21 10° WSW 13:27:45 56° NW 13:45:27 10° NE daylight
09 Jun - 15:47:44 10° WNW 15:59:45 18° NNW 16:08:27 10° N daylight
09 Jun - 23:25:16 10° NW 23:29:37 70° NE 23:34:46 10° ESE night (unlit)
